Wind_Speed
32 30 30 30 30 31 33 34 34 35 37 39 40 42 44 44 43 42 40 39 37 35 34 32 32 31 31 31 31 31 31 32 32 32 33 34 34 35 35 36 37 37
33 32 32 32 33 35 36 36 37 37 38 40 41 42 43 44 44 43 41 40 38 36 35 33 32 32 32 31 31 32 32 33 33 33 34 34 35 35 36 36 37 37
36 35 34 35 36 37 38 38 38 38 39 40 41 42 42 43 43 43 42 41 39 37 35 34 33 33 32 32 32 33 33 33 34 34 35 35 35 35 36 36 36 37
37 37 37 37 38 38 38 38 38 38 39 40 41 41 41 41 43 43 42 40 38 37 35 34 34 33 33 33 33 33 33 34 34 35 35 35 35 35 35 36 37 37
39 38 38 39 38 38 37 36 36 37 38 39 40 40 40 41 42 42 41 40 38 36 35 34 34 34 34 34 34 34 34 34 34 35 35 35 36 36 36 37 38 38
40 39 39 38 36 36 35 35 36 37 38 39 40 40 39 40 42 42 41 39 37 36 35 35 34 34 34 34 34 34 34 34 34 35 35 36 36 37 37 38 38 39
41 39 38 36 35 35 35 36 36 37 38 38 39 39 39 40 41 41 40 38 37 36 35 35 35 35 35 34 34 34 34 34 35 35 35 36 37 37 38 39 40 41
39 37 36 35 35 35 35 35 36 36 37 38 38 38 38 39 40 40 39 38 37 36 35 35 35 35 35 34 34 34 34 35 35 35 36 36 37 38 39 40 41 41
35 34 34 34 34 34 34 34 35 36 36 37 37 37 38 38 39 39 38 37 36 35 35 35 35 35 34 34 34 34 34 35 35 36 36 37 38 39 40 41 41 42
32 32 32 32 32 32 32 33 34 35 36 36 37 37 37 37 38 38 37 36 36 35 35 35 35 35 35 34 34 34 35 36 36 37 38 38 39 40 41 41 42 42
30 31 31 32 31 31 32 33 34 35 35 36 36 36 36 36 37 37 36 36 35 35 35 35 35 35 35 35 35 36 36 36 37 38 39 40 40 41 42 42 43 43
32 32 32 32 31 31 32 33 34 35 35 36 36 36 36 36 36 36 36 35 35 35 35 35 35 35 35 36 36 37 37 38 38 39 39 40 41 42 42 43 44 44
34 34 32 31 30 31 32 33 34 35 36 36 36 36 36 36 36 36 36 36 35 35 35 35 36 36 36 37 37 38 39 39 40 40 41 41 42 42 43 44 44 45
35 33 31 30 30 31 32 33 34 35 36 36 36 36 36 36 36 36 36 36 35 36 36 36 36 36 37 38 38 39 40 40 41 42 42 43 43 43 44 45 45 46
33 31 29 29 30 31 32 33 34 35 36 36 36 36 36 36 36 36 36 36 36 36 36 36 37 37 38 39 40 40 41 42 43 43 44 44 44 44 44 45 46 47
29 28 28 29 30 31 32 33 34 34 35 36 36 36 36 36 36 36 36 36 36 36 36 37 37 38 39 40 41 42 43 44 44 45 45 45 45 45 45 45 46 47
27 27 28 29 30 31 32 33 33 34 35 35 36 36 36 36 36 36 37 36 37 37 37 37 38 39 41 42 43 44 45 46 46 46 46 47 47 48 48 48 48 48
27 27 28 30 31 31 31 32 33 34 35 35 36 36 36 36 36 36 37 37 37 37 37 38 39 40 42 43 44 45 46 47 47 48 48 48 49 50 50 50 51 51
27 29 30 31 31 31 31 32 33 34 35 35 36 36 36 36 36 36 37 37 37 38 38 39 40 41 43 44 45 46 47 48 49 49 50 50 51 52 52 53 53 53
28 30 30 30 30 31 31 33 34 34 35 35 35 36 36 36 36 36 37 37 37 38 39 40 41 43 44 44 46 47 48 49 50 50 51 52 53 53 54 54 54 54
29 29 29 29 30 31 32 34 34 35 35 35 36 36 37 37 36 36 36 37 38 39 40 41 42 44 45 45 46 47 49 50 50 51 53 53 54 55 55 55 55 55
28 28 28 29 31 32 33 34 35 35 36 36 37 37 37 37 36 37 37 38 40 41 42 43 44 45 46 47 48 49 50 51 52 53 54 55 55 55 55 55 55 55
28 29 30 31 32 33 34 35 36 37 37 37 37 37 37 37 37 38 39 40 41 42 43 44 45 46 47 48 49 50 51 52 54 54 55 56 55 55 55 55 55 55
29 30 31 33 34 35 36 36 37 37 38 38 38 37 37 38 38 39 41 42 43 44 45 46 47 48 49 50 50 51 53 54 55 56 56 56 56 56 55 55 55 55
31 32 33 34 35 36 37 37 38 38 38 38 38 38 38 39 40 41 42 44 45 46 47 48 49 49 50 51 52 53 54 56 57 58 58 58 57 57 55 55 54 54
32 34 35 36 37 37 38 38 38 38 38 39 39 40 40 41 43 43 44 45 47 48 49 50 51 51 52 53 54 54 56 57 58 59 59 58 58 57 55 54 53 53
Wind_Direction
255 260 266 273 280 287 292 298 302 305 305 306 309 316 319 316 311 308 306 305 303 301 300 298 297 296 296 296 296 297 297 298 299 300 301 301 302 302 303 303 303 304
255 260 266 273 279 283 287 292 296 299 301 302 306 313 317 315 310 307 306 305 303 302 300 299 298 298 297 298 298 298 299 300 300 301 301 302 302 302 303 303 303 303
254 259 265 271 275 279 284 289 293 297 299 302 306 312 315 313 309 306 305 304 303 301 300 299 298 298 298 298 298 299 299 300 301 301 301 302 302 302 301 301 301 301
253 258 263 268 272 277 282 288 293 298 301 305 308 311 312 311 308 305 304 304 302 301 300 299 298 298 298 298 298 299 299 300 300 301 301 301 301 301 301 301 301 301
252 257 262 267 272 278 285 291 297 302 305 308 310 311 311 309 306 305 304 303 301 300 298 297 297 297 297 297 298 299 299 300 300 300 300 300 300 301 301 301 301 301
254 258 263 269 275 283 289 296 301 305 308 309 309 309 309 307 306 304 303 302 300 299 298 297 297 297 297 298 298 299 299 300 300 300 300 300 301 301 302 302 302 302
255 260 265 272 279 286 293 299 304 307 308 308 308 308 307 306 305 304 303 301 300 299 298 298 298 298 298 298 298 299 299 299 299 300 300 301 301 302 302 302 302 302
257 262 269 275 281 289 296 302 305 307 307 307 306 306 305 304 304 303 302 300 299 298 298 297 297 297 298 298 298 299 299 300 300 301 301 302 302 302 302 301 301 301
260 266 272 279 285 292 299 304 306 306 306 305 305 305 305 304 303 302 300 299 298 298 297 297 297 297 298 298 299 299 300 300 301 301 301 301 301 301 301 300 300 300
265 272 278 285 291 297 303 306 306 305 304 304 304 304 304 303 302 301 300 299 298 298 298 297 298 298 298 299 299 300 300 300 300 301 301 300 300 300 300 300 300 300
272 279 284 290 296 301 306 307 305 304 304 304 304 304 303 302 301 301 300 299 299 298 298 298 298 299 299 300 300 300 300 300 300 300 300 299 299 299 300 300 300 300
278 283 288 293 299 305 307 306 304 303 303 304 304 303 302 302 301 301 300 300 299 299 299 299 299 299 299 299 299 299 299 299 299 299 299 299 299 300 300 300 300 300
281 285 290 296 302 305 305 303 302 302 303 303 303 302 302 301 301 301 300 300 299 299 299 299 298 299 299 299 298 298 298 298 299 299 299 299 299 300 300 300 300 300
283 287 292 298 303 304 303 301 301 301 302 302 301 301 301 301 301 301 300 299 299 298 298 298 298 298 298 298 298 299 299 299 299 299 299 299 299 299 300 300 300 300
283 288 293 299 302 301 300 298 299 300 300 300 300 300 300 300 300 300 299 299 299 299 299 299 298 298 298 299 299 299 300 300 299 299 299 299 299 299 299 299 299 299
283 289 294 298 299 298 296 296 297 299 299 299 299 299 299 299 299 299 299 299 299 299 298 298 299 299 300 300 300 300 300 299 299 299 299 299 299 299 299 299 299 299
285 290 294 296 295 294 294 295 297 298 298 298 298 298 298 299 299 299 299 299 298 298 298 299 300 301 301 301 301 300 300 299 300 300 300 301 301 300 300 300 299 298
287 292 294 294 292 293 294 296 297 297 298 298 297 298 298 298 299 298 298 297 297 298 299 300 301 301 301 301 301 300 301 301 301 302 302 302 302 302 301 300 299 297
290 292 292 291 291 293 294 296 296 297 297 296 296 297 297 297 297 296 296 297 297 299 300 300 301 301 300 300 301 301 302 302 303 304 304 304 303 302 301 300 299 297
289 289 289 289 292 294 295 296 296 296 295 295 295 295 295 295 296 296 296 297 298 299 300 300 300 300 300 301 301 302 302 303 304 304 304 304 303 302 301 300 298 297
286 286 288 291 293 295 295 295 295 294 294 294 293 294 294 295 295 296 297 297 298 298 299 299 300 300 300 301 301 302 302 303 304 304 304 303 302 301 300 299 298 297
287 288 291 293 293 294 294 294 294 293 293 293 293 294 294 295 295 296 296 297 297 297 298 298 299 299 300 301 302 303 303 304 304 304 303 303 302 301 300 299 298 298
290 292 293 293 293 293 293 293 293 293 293 293 293 293 294 294 295 296 296 296 296 297 298 298 299 301 302 303 303 304 304 304 304 303 303 302 302 301 300 300 299 298
292 292 292 292 292 292 292 292 292 292 292 292 292 293 294 294 295 295 295 296 297 298 299 300 301 302 303 304 304 304 304 304 304 303 303 302 302 301 300 300 299 298
292 291 292 291 291 291 291 291 291 291 291 291 292 293 293 294 294 295 296 297 298 300 301 302 303 304 304 305 305 305 305 304 304 303 303 302 301 301 300 299 298 297
290 290 289 289 289 290 290 290 290 290 291 291 292 293 294 295 295 296 297 299 300 302 303 304 305 305 306 306 306 306 305 304 304 303 303 302 301 300 300 299 297 296
Height
3024 3024 3024 3024 3023 3023 3023 3023 3022 3022 3023 3023 3023 3023 3023 3022 3021 3020 3018 3016 3015 3013 3011 3010 3009 3008 3006 3005 3004 3002 3001 3000 2998 2997 2996 2994 2993 2992 2991 2989 2988 2987
3020 3020 3020 3020 3020 3020 3020 3020 3020 3019 3020 3020 3020 3019 3019 3018 3017 3016 3014 3012 3010 3009 3007 3006 3004 3003 3002 3000 2999 2997 2996 2995 2993 2992 2991 2990 2988 2987 2986 2985 2984 2983
3015 3016 3016 3016 3016 3017 3017 3017 3016 3016 3016 3016 3015 3015 3014 3014 3013 3011 3009 3008 3006 3004 3003 3001 3000 2998 2997 2996 2994 2993 2991 2990 2988 2987 2986 2985 2984 2983 2982 2981 2980 2979
3011 3012 3012 3013 3013 3013 3013 3013 3012 3012 3011 3011 3010 3010 3009 3008 3007 3006 3004 3003 3001 2999 2998 2997 2995 2994 2993 2992 2990 2989 2987 2986 2984 2983 2981 2980 2980 2979 2978 2977 2976 2975
3007 3007 3008 3009 3009 3009 3008 3008 3007 3006 3006 3005 3005 3004 3003 3002 3002 3000 2999 2998 2996 2995 2994 2993 2991 2990 2989 2987 2986 2984 2983 2981 2980 2979 2977 2976 2975 2975 2974 2973 2971 2970
3002 3003 3003 3004 3004 3003 3003 3002 3001 3001 3001 3000 2999 2998 2998 2997 2996 2995 2994 2993 2992 2990 2989 2988 2987 2986 2984 2983 2981 2980 2979 2977 2976 2975 2973 2972 2971 2970 2969 2968 2967 2965
2998 2998 2998 2998 2998 2998 2997 2997 2996 2996 2996 2995 2994 2993 2993 2992 2991 2990 2989 2988 2987 2986 2984 2983 2982 2981 2979 2978 2977 2975 2974 2973 2972 2971 2969 2968 2967 2966 2964 2963 2962 2960
2993 2993 2993 2993 2993 2993 2993 2992 2992 2992 2991 2991 2990 2989 2988 2987 2986 2985 2984 2983 2982 2981 2980 2978 2977 2976 2975 2974 2972 2971 2970 2969 2967 2966 2965 2964 2962 2961 2959 2958 2957 2956
2988 2988 2989 2989 2988 2988 2988 2988 2988 2987 2987 2986 2985 2984 2983 2982 2981 2980 2979 2978 2977 2976 2975 2974 2973 2972 2970 2969 2968 2967 2965 2964 2963 2962 2960 2959 2958 2956 2955 2954 2952 2951
2984 2984 2984 2984 2984 2983 2983 2983 2983 2983 2982 2981 2980 2979 2978 2977 2976 2975 2974 2973 2972 2971 2970 2969 2968 2967 2966 2965 2963 2962 2961 2959 2958 2957 2955 2954 2953 2951 2950 2949 2947 2946
2979 2979 2979 2979 2978 2978 2978 2978 2978 2978 2977 2976 2975 2974 2973 2972 2970 2969 2968 2967 2967 2966 2965 2964 2963 2962 2961 2959 2958 2957 2956 2955 2954 2952 2951 2949 2948 2946 2945 2943 2942 2940
2975 2974 2974 2973 2973 2973 2973 2973 2973 2972 2971 2970 2970 2969 2968 2966 2965 2963 2963 2962 2961 2961 2960 2959 2958 2957 2956 2955 2953 2952 2951 2950 2949 2947 2946 2944 2943 2941 2939 2938 2936 2934
2970 2969 2969 2968 2968 2968 2968 2968 2968 2967 2966 2966 2965 2964 2963 2961 2959 2958 2957 2957 2956 2956 2955 2954 2953 2952 2951 2949 2948 2947 2946 2944 2943 2942 2940 2939 2937 2936 2934 2932 2930 2928
2965 2964 2964 2964 2964 2964 2964 2964 2964 2963 2962 2961 2961 2960 2958 2956 2954 2953 2953 2952 2952 2951 2950 2949 2948 2947 2945 2944 2942 2941 2940 2938 2937 2936 2935 2933 2932 2931 2929 2926 2924 2922
2960 2960 2960 2960 2960 2960 2960 2960 2959 2959 2958 2957 2956 2955 2954 2952 2950 2949 2948 2947 2946 2945 2945 2944 2942 2941 2939 2938 2936 2935 2934 2932 2931 2930 2929 2928 2927 2925 2923 2921 2918 2916
2956 2956 2956 2956 2956 2956 2956 2956 2955 2954 2953 2952 2952 2951 2949 2947 2945 2944 2943 2942 2941 2940 2939 2938 2936 2935 2933 2932 2930 2929 2928 2927 2926 2924 2923 2922 2920 2918 2917 2915 2913 2911
2952 2952 2952 2953 2953 2952 2952 2951 2951 2950 2949 2948 2947 2946 2944 2942 2940 2939 2938 2937 2936 2935 2934 2932 2931 2929 2927 2926 2925 2923 2922 2921 2919 2918 2917 2915 2913 2911 2909 2907 2906 2904
2948 2948 2948 2949 2948 2948 2947 2946 2946 2945 2944 2943 2942 2940 2938 2936 2935 2934 2932 2932 2931 2929 2928 2927 2925 2924 2922 2921 2919 2917 2916 2914 2912 2911 2909 2907 2904 2902 2901 2899 2898 2897
2944 2944 2944 2944 2943 2943 2942 2941 2940 2940 2939 2938 2937 2935 2933 2931 2930 2929 2928 2927 2926 2924 2923 2922 2920 2919 2917 2916 2914 2912 2909 2907 2905 2903 2901 2899 2896 2895 2893 2892 2890 2889
2940 2941 2940 2939 2938 2937 2936 2936 2935 2935 2934 2934 2932 2930 2929 2927 2926 2925 2923 2922 2920 2919 2918 2916 2915 2913 2912 2910 2908 2905 2903 2900 2898 2896 2893 2891 2889 2887 2886 2884 2882 2880
2937 2936 2935 2934 2933 2932 2932 2931 2931 2930 2930 2929 2927 2925 2924 2922 2921 2920 2918 2917 2915 2914 2913 2911 2909 2908 2906 2904 2902 2899 2896 2894 2891 2889 2887 2885 2883 2881 2879 2876 2874 2872
2931 2930 2929 2928 2928 2928 2927 2927 2926 2926 2925 2923 2922 2920 2918 2917 2916 2914 2913 2912 2910 2909 2908 2906 2904 2901 2899 2897 2895 2892 2889 2887 2885 2883 2880 2878 2876 2874 2871 2869 2867 2864
2925 2924 2924 2924 2924 2923 2923 2922 2921 2921 2919 2918 2916 2915 2913 2912 2911 2909 2908 2906 2905 2903 2902 2900 2898 2895 2892 2890 2887 2885 2882 2880 2878 2876 2874 2871 2869 2866 2864 2862 2859 2856
2920 2920 2920 2919 2919 2919 2918 2918 2917 2915 2914 2913 2911 2910 2908 2907 2906 2904 2903 2901 2899 2897 2895 2894 2891 2888 2885 2883 2880 2877 2875 2872 2870 2868 2866 2864 2861 2859 2856 2854 2852 2849
2916 2915 2915 2915 2915 2914 2914 2913 2912 2910 2908 2907 2906 2904 2903 2902 2900 2899 2897 2895 2893 2891 2888 2886 2883 2881 2878 2875 2873 2870 2867 2865 2862 2859 2858 2856 2853 2851 2850 2847 2845 2842
2912 2912 2911 2911 2910 2910 2909 2908 2906 2904 2903 2902 2900 2899 2898 2896 2894 2893 2891 2889 2887 2884 2881 2878 2876 2873 2870 2867 2865 2862 2859 2856 2854 2851 2849 2847 2845 2843 2842 2840 2838 2834